Location: Unspecified
(0.0000°N, 0.0000°E)
Time: 16:12:36
(UTC+00:00)

XW-2F - Pass Details

Date: 14 December 2017
Orbit: 507 x 526 km, 97.5° (Epoch: 22 April)

Event Time Altitude Azimuth Distance (km) Brightness Sun altitude
Rises 05:00:27 0° 40° (NE) 2,644 ? -12.4°
Reaches altitude 10° 05:03:12 10° 62° (ENE) 1,756 ? -11.8°
Maximum altitude 05:05:35 16° 101° (ESE) 1,412 ? -11.3°
Drops below altitude 10° 05:07:57 10° 141° (SE) 1,754 ? -10.7°
Sets 05:10:41 0° 162° (SSE) 2,640 ? -10.1°
